Snowfall_Accumulation
0.1 0.2 0.2 0.1 0.1 0.3 0.4 0.4 1.1 1.1 0.2 0.0 0.1 0.0 0.0 0.0 0.0 0.0 0.0 0.0 0.0 0.0 0.1 0.1 0.1 0.1 0.1 0.1 0.1 0.1 0.1 0.0 0.0 0.0 0.0 0.0 0.0 0.0
0.2 0.3 0.2 0.2 0.1 0.2 0.3 0.3 0.7 1.2 1.0 0.1 0.0 0.0 0.0 0.0 0.0 0.0 0.0 0.0 0.0 0.0 0.0 0.1 0.1 0.1 0.1 0.1 0.1 0.1 0.1 0.1 0.1 0.0 0.0 0.0 0.0 0.0
0.3 0.4 0.4 0.3 0.3 0.3 0.3 0.3 0.5 0.9 1.3 0.5 0.2 0.1 0.1 0.2 0.0 0.0 0.0 0.0 0.0 0.1 0.1 0.1 0.1 0.2 0.2 0.2 0.2 0.2 0.2 0.1 0.1 0.1 0.1 0.1 0.0 0.0
0.4 0.3 0.4 0.4 0.5 0.5 0.4 0.4 0.5 0.6 1.2 1.2 0.5 0.6 0.5 0.3 0.2 0.2 0.0 0.0 0.1 0.0 0.1 0.1 0.2 0.3 0.4 0.5 0.5 0.4 0.3 0.3 0.3 0.2 0.1 0.1 0.1 0.1
0.4 0.6 0.6 0.6 0.7 0.9 0.6 0.6 0.7 0.7 1.0 1.5 1.2 0.9 0.9 0.7 0.5 0.5 0.4 0.1 0.0 0.0 0.0 0.0 0.1 0.4 0.7 0.6 0.5 0.5 0.6 0.5 0.4 0.3 0.3 0.2 0.2 0.2
0.5 0.6 0.7 1.0 1.1 1.1 1.2 1.2 1.1 1.5 1.7 1.9 1.8 1.8 1.7 1.1 1.0 1.0 0.9 0.7 0.3 0.2 0.1 0.1 0.3 0.3 0.3 0.3 0.3 0.4 0.4 0.5 0.6 0.5 0.6 0.5 0.4 0.4
0.6 0.7 1.0 1.1 1.2 1.3 1.6 2.2 2.2 2.7 3.0 3.7 3.6 2.7 1.6 1.3 1.1 1.0 1.5 1.4 1.1 0.5 0.7 0.4 0.4 0.4 0.5 0.1 0.2 0.2 0.5 0.7 0.7 0.7 0.9 0.8 0.7 0.5
1.4 1.3 1.3 1.3 1.3 1.4 1.3 1.6 2.7 4.3 5.4 5.6 4.2 2.7 1.6 1.0 1.2 1.4 2.1 2.8 2.2 0.8 1.2 0.7 0.4 0.7 0.7 0.3 0.4 0.5 0.6 0.8 0.9 1.0 1.0 0.9 0.9 0.8
2.0 2.2 2.1 1.7 1.5 1.4 1.4 1.6 1.8 2.4 3.3 3.8 3.7 2.2 1.4 1.4 2.3 3.2 3.1 3.6 3.0 1.5 1.7 1.6 1.0 1.0 0.8 0.8 0.5 0.5 0.4 0.6 0.8 1.0 1.1 1.1 1.0 1.0
2.2 1.9 1.7 1.5 1.4 1.8 2.2 2.8 2.1 1.5 1.1 1.3 1.6 1.6 1.6 1.5 2.4 3.9 3.9 3.5 2.0 1.1 1.3 2.7 1.5 1.4 1.5 1.0 0.9 0.6 0.8 0.8 1.3 1.6 1.5 1.4 1.3 1.3
1.5 1.2 1.2 1.2 1.2 2.4 3.7 4.3 2.2 1.1 0.8 1.0 1.4 1.7 1.6 1.9 2.1 4.1 5.3 5.6 5.2 2.1 1.4 2.6 2.2 2.1 1.7 1.8 1.0 1.0 0.9 1.3 1.0 1.0 1.2 1.2 1.2 1.3
1.1 0.7 0.7 1.1 1.9 3.1 4.0 4.3 3.7 1.9 1.8 1.2 0.9 0.9 1.2 1.0 1.0 2.6 5.0 8.5 8.0 5.4 1.8 2.9 3.3 4.0 5.5 2.5 1.5 1.3 1.3 1.0 1.3 1.2 0.8 1.1 1.3 1.6
1.9 1.2 0.6 1.4 2.6 3.2 3.3 3.3 3.5 3.5 3.1 2.8 2.1 1.9 1.9 1.8 1.3 1.3 2.9 6.9 10.3 7.8 3.0 6.0 7.9 6.3 8.7 5.5 2.7 2.0 1.9 1.8 1.4 1.4 1.6 1.7 2.0 3.1
3.0 2.0 1.8 2.5 2.8 2.4 2.3 2.3 3.0 3.4 3.5 3.5 3.2 2.9 2.5 2.7 2.5 2.3 2.5 3.1 4.7 5.8 3.8 7.0 12.8 9.8 11.8 9.8 5.5 3.9 3.5 2.9 2.8 3.4 3.1 3.1 3.5 3.4
2.8 2.7 3.0 3.1 2.8 2.4 2.1 2.2 2.3 3.2 3.8 4.3 4.1 3.3 3.0 3.1 3.0 3.0 2.7 2.6 3.1 3.1 3.1 4.1 8.5 9.6 12.1 12.7 8.3 4.9 4.8 4.6 3.9 4.8 4.6 4.7 4.6 4.4
2.9 2.6 2.3 2.2 2.3 2.3 2.2 2.7 2.7 3.4 4.3 4.9 4.8 4.1 3.7 4.0 4.2 4.1 4.6 4.4 5.4 4.5 3.5 3.4 4.8 8.7 11.3 8.7 8.8 8.4 5.9 6.9 6.1 6.5 6.8 6.3 5.4 4.8
4.7 3.8 3.0 2.6 2.6 2.9 3.0 3.0 3.4 3.5 4.9 4.7 5.4 5.7 5.1 4.9 4.9 5.0 6.5 7.1 7.6 5.8 5.1 4.2 4.2 5.4 7.0 8.5 9.7 7.7 6.5 7.0 7.8 8.9 10.0 9.8 6.3 4.4
4.8 5.0 3.9 3.4 3.8 3.9 4.3 4.7 4.7 5.2 5.6 6.1 6.6 7.0 7.5 7.1 6.9 6.2 7.0 8.3 8.4 6.6 6.5 5.8 6.8 8.1 8.1 6.9 6.5 8.2 8.5 8.8 9.4 10.0 11.4 13.3 10.6 5.5
4.9 4.7 4.2 4.3 4.6 4.7 4.9 5.5 6.0 5.7 6.3 7.5 8.1 8.9 9.6 9.1 8.3 8.1 8.2 8.3 7.9 7.3 6.8 7.1 9.5 13.9 14.4 9.9 6.5 7.1 10.9 11.7 10.7 10.9 11.8 14.1 15.7 9.5
4.3 4.8 5.1 5.0 5.2 5.4 5.7 6.2 6.2 6.3 7.2 7.6 8.3 9.7 10.8 11.4 10.7 9.6 8.7 9.1 9.4 8.5 7.5 6.7 8.3 12.9 17.9 15.2 11.6 8.7 8.1 13.0 15.2 15.5 13.3 11.1 8.9 5.6
4.8 5.2 5.7 5.9 6.3 6.4 6.5 6.8 7.4 7.7 7.7 9.1 9.5 10.2 11.5 13.1 12.2 10.6 10.4 9.8 10.7 10.9 10.0 7.6 6.9 8.4 13.0 15.8 14.0 9.9 9.6 8.4 11.2 17.6 17.6 16.4 13.7 11.5
4.9 5.4 5.6 6.2 6.7 7.2 7.6 7.8 8.2 8.1 8.5 9.4 10.1 10.5 11.2 13.0 13.3 12.1 11.7 11.7 10.8 10.5 9.9 8.4 8.2 9.5 12.2 15.3 12.5 8.9 8.9 8.5 8.2 7.9 10.4 15.1 24.2 25.9
6.0 6.1 6.1 6.5 6.7 7.4 8.1 8.3 8.5 8.3 8.6 10.0 11.1 11.4 11.9 12.5 12.3 12.8 12.8 12.4 12.4 11.7 11.1 10.5 9.0 9.1 9.6 10.3 10.9 9.5 8.7 8.6 8.6 9.4 10.9 10.2 9.0 10.6